Meteo pe oră la Allen

Astăzi, 28 Ianuarie, Joi

Timp Temperatura Precipitaţii Vânt Presiune Umiditate
00:00 +1°C° 0 mm 3 m/s 756 mmHg 64%
01:00 +2°C° 0 mm 2 m/s 757 mmHg 66%
02:00 +1°C° 0 mm 2 m/s 757 mmHg 68%
03:00 +1°C° 0 mm 2 m/s 757 mmHg 70%
04:00 +1°C° 0 mm 2 m/s 757 mmHg 71%
05:00 -1°C° 0 mm 2 m/s 757 mmHg 72%
06:00 -1°C° 0 mm 2 m/s 757 mmHg 73%
07:00 +1°C° 0 mm 2 m/s 758 mmHg 71%
08:00 +1°C° 0 mm 2 m/s 758 mmHg 69%
09:00 0°C° 0 mm 3 m/s 758 mmHg 67%
10:00 +3°C° 0 mm 2 m/s 758 mmHg 62%
11:00 +4°C° 0 mm 2 m/s 758 mmHg 57%
12:00 +6°C° 0 mm 2 m/s 758 mmHg 52%
13:00 +7°C° 0 mm 2 m/s 757 mmHg 50%
14:00 +8°C° 0 mm 2 m/s 756 mmHg 48%
15:00 +8°C° 0 mm 2 m/s 755 mmHg 45%
16:00 +8°C° 0 mm 2 m/s 755 mmHg 49%
17:00 +7°C° 0 mm 2 m/s 754 mmHg 53%
18:00 +7°C° 0 mm 2 m/s 754 mmHg 56%
19:00 +6°C° 0 mm 2 m/s 754 mmHg 58%
20:00 +6°C° 0 mm 2 m/s 754 mmHg 60%
21:00 +5°C° 0 mm 3 m/s 754 mmHg 62%
22:00 +5°C° 0 mm 3 m/s 754 mmHg 63%
23:00 +5°C° 0 mm 3 m/s 753 mmHg 64%

Mâine, 29 Ianuarie, Vineri

Timp Temperatura Precipitaţii Vânt Presiune Umiditate
00:00 +6°C° 0 mm 2 m/s 753 mmHg 65%
01:00 +4°C° 0 mm 3 m/s 753 mmHg 67%
02:00 +4°C° 0 mm 3 m/s 752 mmHg 68%
03:00 +4°C° 0 mm 3 m/s 752 mmHg 70%
04:00 +4°C° 0 mm 3 m/s 751 mmHg 72%
05:00 +3°C° 0 mm 3 m/s 751 mmHg 74%
06:00 +3°C° 0 mm 3 m/s 750 mmHg 76%
07:00 +4°C° 0 mm 4 m/s 750 mmHg 74%
08:00 +3°C° 0 mm 5 m/s 750 mmHg 73%
09:00 +5°C° 0 mm 5 m/s 750 mmHg 72%
10:00 +7°C° 0 mm 6 m/s 750 mmHg 66%
11:00 +8°C° 0 mm 6 m/s 749 mmHg 60%
12:00 +10°C° 0 mm 6 m/s 749 mmHg 54%
13:00 +11°C° 0 mm 6 m/s 748 mmHg 54%
14:00 +13°C° 0 mm 6 m/s 747 mmHg 54%
15:00 +14°C° 0 mm 6 m/s 746 mmHg 54%
16:00 +14°C° 0 mm 6 m/s 745 mmHg 60%
17:00 +13°C° 0 mm 5 m/s 745 mmHg 66%
18:00 +13°C° 0 mm 5 m/s 744 mmHg 72%
19:00 +13°C° 0 mm 5 m/s 744 mmHg 74%
20:00 +13°C° 0 mm 6 m/s 744 mmHg 76%
21:00 +13°C° 0 mm 6 m/s 743 mmHg 77%
22:00 +12°C° 0.1 mm 7 m/s 743 mmHg 79%
23:00 +12°C° 0.1 mm 7 m/s 742 mmHg 80%

Poimâine, 30 Ianuarie, Sâmbătă

Timp Temperatura Precipitaţii Vânt Presiune Umiditate
00:00 +12°C° 0.1 mm 7 m/s 742 mmHg 82%
01:00 +12°C° 0 mm 7 m/s 741 mmHg 82%
02:00 +12°C° 0 mm 7 m/s 740 mmHg 83%
03:00 +12°C° 0 mm 8 m/s 739 mmHg 84%
04:00 +14°C° 0.1 mm 7 m/s 738 mmHg 85%
05:00 +14°C° 0.1 mm 7 m/s 738 mmHg 85%
06:00 +14°C° 0.1 mm 6 m/s 738 mmHg 86%
07:00 +15°C° 0.2 mm 7 m/s 738 mmHg 84%
08:00 +16°C° 0.2 mm 8 m/s 738 mmHg 81%
09:00 +16°C° 0.2 mm 9 m/s 737 mmHg 78%
10:00 +18°C° 0 mm 10 m/s 737 mmHg 63%
11:00 +19°C° 0 mm 10 m/s 737 mmHg 47%
12:00 +21°C° 0 mm 10 m/s 737 mmHg 32%
13:00 +21°C° 0 mm 10 m/s 737 mmHg 31%
14:00 +21°C° 0 mm 9 m/s 737 mmHg 30%
15:00 +21°C° 0 mm 8 m/s 737 mmHg 29%
16:00 +20°C° 0 mm 7 m/s 737 mmHg 31%
17:00 +19°C° 0 mm 6 m/s 737 mmHg 33%
18:00 +17°C° 0 mm 5 m/s 738 mmHg 36%
19:00 +16°C° 0 mm 5 m/s 739 mmHg 40%
20:00 +14°C° 0 mm 4 m/s 739 mmHg 45%
21:00 +13°C° 0 mm 3 m/s 740 mmHg 49%
22:00 +13°C° 0 mm 3 m/s 741 mmHg 51%
23:00 +12°C° 0 mm 3 m/s 741 mmHg 52%

31 Ianuarie, Duminică

Timp Temperatura Precipitaţii Vânt Presiune Umiditate
00:00 +12°C° 0 mm 3 m/s 742 mmHg 54%
01:00 +11°C° 0 mm 3 m/s 742 mmHg 58%
02:00 +10°C° 0 mm 3 m/s 743 mmHg 62%
03:00 +9°C° 0 mm 3 m/s 743 mmHg 65%
04:00 +7°C° 0 mm 4 m/s 744 mmHg 67%
05:00 +7°C° 0 mm 4 m/s 745 mmHg 69%
06:00 +6°C° 0 mm 4 m/s 745 mmHg 71%
07:00 +6°C° 0 mm 5 m/s 746 mmHg 67%
08:00 +5°C° 0 mm 6 m/s 747 mmHg 64%
09:00 +5°C° 0 mm 7 m/s 748 mmHg 61%
10:00 +6°C° 0 mm 7 m/s 749 mmHg 58%
11:00 +8°C° 0 mm 7 m/s 749 mmHg 55%
12:00 +10°C° 0 mm 7 m/s 749 mmHg 52%
13:00 +10°C° 0 mm 6 m/s 749 mmHg 51%
14:00 +11°C° 0 mm 6 m/s 749 mmHg 49%
15:00 +13°C° 0 mm 6 m/s 748 mmHg 47%
16:00 +11°C° 0 mm 6 m/s 749 mmHg 50%
17:00 +10°C° 0 mm 5 m/s 749 mmHg 53%
18:00 +10°C° 0 mm 4 m/s 749 mmHg 56%
19:00 +10°C° 0 mm 4 m/s 750 mmHg 58%
20:00 +8°C° 0 mm 4 m/s 750 mmHg 60%
21:00 +8°C° 0 mm 3 m/s 751 mmHg 62%
22:00 +8°C° 0 mm 3 m/s 751 mmHg 63%
23:00 +7°C° 0 mm 3 m/s 751 mmHg 65%

1 Februarie, Luni

Timp Temperatura Precipitaţii Vânt Presiune Umiditate
00:00 +7°C° 0 mm 2 m/s 751 mmHg 66%
01:00 +6°C° 0 mm 2 m/s 751 mmHg 66%
02:00 +6°C° 0 mm 2 m/s 751 mmHg 67%
03:00 +6°C° 0 mm 2 m/s 752 mmHg 67%
04:00 +6°C° 0 mm 2 m/s 752 mmHg 67%
05:00 +5°C° 0 mm 2 m/s 752 mmHg 67%
06:00 +5°C° 0 mm 2 m/s 752 mmHg 68%
07:00 +7°C° 0 mm 1 m/s 752 mmHg 65%
08:00 +7°C° 0 mm 1 m/s 752 mmHg 62%
09:00 +8°C° 0 mm 1 m/s 753 mmHg 59%
10:00 +10°C° 0 mm 1 m/s 752 mmHg 53%
11:00 +11°C° 0 mm 0 m/s 752 mmHg 47%
12:00 +12°C° 0 mm 0 m/s 751 mmHg 41%
13:00 +13°C° 0 mm 0 m/s 751 mmHg 39%
14:00 +15°C° 0 mm 1 m/s 750 mmHg 37%
15:00 +16°C° 0 mm 1 m/s 749 mmHg 35%
16:00 +15°C° 0 mm 1 m/s 749 mmHg 37%
17:00 +14°C° 0 mm 1 m/s 748 mmHg 40%
18:00 +13°C° 0 mm 2 m/s 748 mmHg 43%
19:00 +12°C° 0 mm 2 m/s 748 mmHg 45%
20:00 +12°C° 0 mm 2 m/s 748 mmHg 47%
21:00 +10°C° 0 mm 3 m/s 748 mmHg 49%
22:00 +10°C° 0 mm 3 m/s 748 mmHg 50%
23:00 +10°C° 0 mm 3 m/s 748 mmHg 52%

2 Februarie, Marţi

Timp Temperatura Precipitaţii Vânt Presiune Umiditate
00:00 +9°C° 0 mm 3 m/s 747 mmHg 53%
01:00 +9°C° 0 mm 3 m/s 747 mmHg 54%
02:00 +9°C° 0 mm 3 m/s 747 mmHg 56%
03:00 +8°C° 0 mm 3 m/s 747 mmHg 57%
04:00 +8°C° 0 mm 3 m/s 746 mmHg 59%
05:00 +7°C° 0 mm 3 m/s 746 mmHg 61%
06:00 +7°C° 0 mm 3 m/s 745 mmHg 63%
07:00 +7°C° 0 mm 4 m/s 746 mmHg 62%
08:00 +7°C° 0 mm 4 m/s 746 mmHg 61%
09:00 +8°C° 0 mm 5 m/s 746 mmHg 61%
10:00 +9°C° 0 mm 5 m/s 746 mmHg 56%
11:00 +11°C° 0 mm 6 m/s 745 mmHg 52%
12:00 +13°C° 0 mm 6 m/s 745 mmHg 48%
13:00 +14°C° 0 mm 6 m/s 744 mmHg 47%
14:00 +15°C° 0 mm 7 m/s 743 mmHg 45%
15:00 +16°C° 0 mm 7 m/s 742 mmHg 43%
16:00 +15°C° 0 mm 7 m/s 742 mmHg 47%
17:00 +14°C° 0 mm 6 m/s 741 mmHg 52%
18:00 +13°C° 0 mm 5 m/s 741 mmHg 56%
19:00 +13°C° 0 mm 6 m/s 741 mmHg 58%
20:00 +12°C° 0 mm 7 m/s 741 mmHg 59%
21:00 +12°C° 0 mm 7 m/s 741 mmHg 61%
22:00 +12°C° 0 mm 8 m/s 741 mmHg 65%
23:00 +12°C° 0 mm 8 m/s 740 mmHg 69%
Arată mai mult

Formular de consimțământ

Meteoprog și furnizorii noștri de servicii pot stoca și accesa date personale, precum cookies, identificatori de dispozitiv sau alte tehnologii similare pe dispozitivul dumneavoastră și procesa astfel de date pentru a personaliza conținutul și reclamele, dar și pentru a oferi caracteristici de social media și pentru a analiza traficul.

  • Stocarea și/sau accesarea informațiilor pe dispozitivul dumneavoastră

    Cookies, identificatori de dispozitiv sau alte informații pot fi stocate sau accesate pe dispozitiv în scopurile indicate mai sus.

  • Reclame și conținut personalizat, evaluarea reclamelor și a conținutului, informații despre audiențe și dezvoltarea produselor

    Reclamele și conținutul pot fi personalizate pe baza unui profil. Pot fi adăugate date suplimentare pentru a personaliza mai bine reclamele și conținutul. Performanța reclamelor și conținutului poate fi măsurată. Pot fi obținute informații despre utilizatorii care au văzut reclamele și conținutul. Aceste date pot fi utilizate pentru a dezvolta sau îmbunătăți experiența utilizatorilor, sistemele și software-ul.

Dând clic pe ‘Sunt de acord’, permiteți utilizarea cookie-urilor menționate, a identificatorilor de dispozitiv, balizelor web sau altor tehnologii similare. Setările pot fi modificate din browser-ul dispozitivului dumneavoastră.

În anumite scopuri, interesele legitime pot prima asupra consimțământului. Puteți citi mai multe informații în acest sens în Politica privind Confidențialitatea Datelor și Cookie.